Location: Alladorf
(49.9620°N, 11.3790°E)
Time: 21:30:22
(UTC+00:00)

Cosmos 1805 Rocket - Pass Details

Date: 29 November 2020
Orbit: 605 x 631 km, 82.5° (Epoch: 25 January)

Event Time Altitude Azimuth Distance (km) Brightness Sun altitude
Rises 05:13:47 0° 184° (S) 2,895 7.2 -14.6°
Reaches altitude 10° 05:15:59 10° 183° (S) 1,997 6.3 -14.3°
Maximum altitude 05:20:25 78° 97° (E) 650 3.7 -13.6°
Drops below altitude 10° 05:24:54 10° 13° (NNE) 2,023 6.1 -12.9°
Sets 05:27:09 0° 12° (NNE) 2,937 7.0 -12.6°
